Location: Innerarity Island Observatory
(30.3139°N, 87.4867°W)
Time: 23:21:33
(UTC-05:00)

Amateur Radio Satellites - All Passes

Search period start: 20 August 2014 22:51
Search period end: 21 August 2014 22:51
Location: Innerarity Island Observatory, 30.3139°N, 87.4867°W

Satellite Date Start Highest point End Downlink Frequencies (MHz)
Time Altitude Azimuth
FUNcube-1 20 Aug 23:52:54 23:53:10 10° 267° (W) 23:53:27 145.950 - 145.970 MHz USB
Saudisat 1A 21 Aug 00:12:04 00:15:22 21° 110° (ESE) 00:18:40 436.775 MHz
KITSAT 1 21 Aug 00:55:12 01:03:02 56° 110° (ESE) 01:10:53 435.175 FM
Oscar 19 21 Aug 01:24:44 01:28:26 20° 95° (E) 01:32:07 437.125 CW, 437.150 USB
AO-Echo 21 Aug 01:42:23 01:42:32 10° 93° (E) 01:42:41 ?
MaSat-1 21 Aug 01:43:19 01:48:00 78° 68° (ENE) 01:52:01 437.345 MHz
Uribyol 2 21 Aug 01:46:14 01:48:41 13° 94° (E) 01:51:07 436.500 FM
Saudisat 1A 21 Aug 01:50:57 01:54:44 28° 303° (WNW) 01:58:33 436.775 MHz
Oscar 16 21 Aug 01:56:36 02:01:34 45° 100° (E) 02:06:31 437.025 USB, Beacon 2401.1428
AO-27 21 Aug 01:58:36 02:02:03 18° 95° (E) 02:05:29 436.795 MHz FM
JAS-1B 21 Aug 02:28:42 02:34:47 31° 95° (E) 02:40:07 435.800 - 435.900 CW/SSB
KITSAT 1 21 Aug 02:52:03 02:58:43 28° 307° (NW) 03:05:27 435.175 FM
Oscar 19 21 Aug 03:03:03 03:07:48 37° 288° (WNW) 03:12:32 437.125 CW, 437.150 USB
Gurwin Techsat 1B 21 Aug 03:03:38 03:08:28 35° 98° (E) 03:13:17 435.225 FM
ITAMSAT 1 21 Aug 03:10:24 03:15:35 78° 284° (WNW) 03:20:44 435.822 SSB
AO-Echo 21 Aug 03:16:58 03:21:34 55° 285° (WNW) 03:26:08 ?
Uribyol 2 21 Aug 03:23:20 03:28:21 53° 286° (WNW) 03:33:23 436.500 FM
AO-7 21 Aug 03:30:12 03:32:46 12° 93° (E) 03:35:19 29.400 - 29.500 MHz
AO-27 21 Aug 03:36:49 03:41:37 40° 288° (WNW) 03:46:25 436.795 MHz FM
Oscar 16 21 Aug 03:37:17 03:40:30 17° 293° (WNW) 03:43:42 437.025 USB, Beacon 2401.1428
OPAL 21 Aug 03:41:28 03:45:40 28° 68° (ENE) 03:49:55 ?
Sapphire 21 Aug 03:49:31 03:52:33 15° 53° (NE) 03:55:35 437.095 MHz 1200 baud AX-25 AFSK
Uosat F 21 Aug 03:59:31 04:02:11 14° 95° (E) 04:04:51 435.120 FM
TMSAT-1 21 Aug 04:01:57 04:07:14 80° 284° (WNW) 04:12:31 436.925 FM
PCSat 21 Aug 04:18:52 04:23:36 30° 59° (ENE) 04:28:18 145.825 MHz
JAS-1B 21 Aug 04:19:06 04:25:20 32° 294° (WNW) 04:30:45 435.800 - 435.900 CW/SSB
Gurwin Techsat 1B 21 Aug 04:44:12 04:48:09 22° 291° (WNW) 04:52:06 435.225 FM
AO-7 21 Aug 05:18:00 05:26:20 85° 106° (ESE) 05:34:36 29.400 - 29.500 MHz
OPAL 21 Aug 05:20:24 05:24:26 25° 261° (W) 05:28:32 ?
SO-50 21 Aug 05:21:17 05:25:02 28° 111° (ESE) 05:28:51 436.795 FM
Sapphire 21 Aug 05:31:01 05:36:22 62° 249° (WSW) 05:41:41 437.095 MHz 1200 baud AX-25 AFSK
Uosat F 21 Aug 05:36:21 05:41:07 46° 287° (WNW) 05:45:52 435.120 FM
Hamsat 21 Aug 05:44:11 05:46:39 15° 94° (E) 05:49:06 145.90 MHz
PCSat 21 Aug 06:02:19 06:06:51 28° 253° (WSW) 06:11:23 145.825 MHz
JAS-2 21 Aug 06:02:21 06:06:24 23° 97° (E) 06:10:34 435.800 - 435.900 CW/SSB, 435.910 FM
UOSAT-12 21 Aug 06:42:06 06:44:04 13° 107° (ESE) 06:46:04 437.025 FM, 437.400 FM
STRAND 1 21 Aug 06:45:34 06:50:38 66° 75° (ENE) 06:55:41 ?
SO-50 21 Aug 07:02:02 07:05:31 22° 305° (NW) 07:09:05 436.795 FM
RS-15 21 Aug 07:05:30 07:07:13 10° 99° (E) 07:08:56 29.354 - 29.394 USB, Beacon 29.352 USB
AO-7 21 Aug 07:13:13 07:18:04 17° 302° (WNW) 07:22:55 29.400 - 29.500 MHz
Hamsat 21 Aug 07:18:42 07:22:39 34° 286° (WNW) 07:26:33 145.90 MHz
SO-67 21 Aug 07:36:15 07:39:33 43° 99° (E) 07:42:51 435.3500 MHz FM
JAS-2 21 Aug 07:47:02 07:51:28 30° 289° (WNW) 07:56:04 435.800 - 435.900 CW/SSB, 435.910 FM
UOSAT-12 21 Aug 08:19:18 08:23:43 48° 300° (WNW) 08:28:14 437.025 FM, 437.400 FM
HO-68 21 Aug 08:54:36 09:00:25 27° 97° (E) 09:06:12 435.675 MHz FM
KITSAT 1 21 Aug 08:59:50 09:00:32 10° 40° (NE) 09:01:15 435.175 FM
RS-15 21 Aug 09:06:37 09:17:47 74° 113° (ESE) 09:28:38 29.354 - 29.394 USB, Beacon 29.352 USB
UKube-1 21 Aug 09:53:11 09:57:21 46° 100° (E) 10:01:31 145.840 MHz, 145.915 MHz
FUNcube-1 21 Aug 10:08:37 10:11:04 14° 95° (E) 10:13:32 145.950 - 145.970 MHz USB
Oscar 11 21 Aug 10:10:28 10:14:39 44° 99° (E) 10:18:48 145.825 FM, Beacon 2401.500 USB
Saudisat 1A 21 Aug 10:22:27 10:26:40 43° 59° (ENE) 10:30:50 436.775 MHz
HO-68 21 Aug 10:41:27 10:48:10 46° 291° (WNW) 10:54:53 435.675 MHz FM
KITSAT 1 21 Aug 10:49:50 10:57:46 57° 61° (ENE) 11:05:37 435.175 FM
RS-15 21 Aug 11:22:03 11:30:59 28° 313° (NW) 11:39:53 29.354 - 29.394 USB, Beacon 29.352 USB
UKube-1 21 Aug 11:31:42 11:33:06 11° 293° (WNW) 11:34:29 145.840 MHz, 145.915 MHz
FUNcube-1 21 Aug 11:43:23 11:47:30 38° 286° (WNW) 11:51:40 145.950 - 145.970 MHz USB
Oscar 11 21 Aug 11:48:40 11:50:23 12° 292° (WNW) 11:52:07 145.825 FM, Beacon 2401.500 USB
Saudisat 1A 21 Aug 12:03:47 12:05:48 13° 252° (WSW) 12:07:49 436.775 MHz
Oscar 19 21 Aug 12:36:53 12:39:59 16° 67° (ENE) 12:43:06 437.125 CW, 437.150 USB
KITSAT 1 21 Aug 12:46:24 12:52:33 25° 256° (WSW) 12:58:43 435.175 FM
Uribyol 2 21 Aug 12:59:44 13:01:36 12° 65° (ENE) 13:03:29 436.500 FM
JAS-1B 21 Aug 13:04:37 13:11:58 25° 63° (ENE) 13:19:07 435.800 - 435.900 CW/SSB
Oscar 16 21 Aug 13:08:06 13:12:46 37° 72° (ENE) 13:17:27 437.025 USB, Beacon 2401.1428
AO-27 21 Aug 13:11:55 13:15:01 16° 67° (ENE) 13:18:06 436.795 MHz FM
ISS 21 Aug 13:36:10 13:39:29 85° 314° (NW) 13:42:48 145.800 FM
Oscar 19 21 Aug 14:14:00 14:18:54 45° 260° (W) 14:23:50 437.125 CW, 437.150 USB
Gurwin Techsat 1B 21 Aug 14:19:16 14:23:56 32° 71° (ENE) 14:28:36 435.225 FM
ITAMSAT 1 21 Aug 14:22:36 14:27:47 89° 75° (ENE) 14:32:59 435.822 SSB
AO-Echo 21 Aug 14:23:28 14:28:43 82° 258° (WSW) 14:33:51 ?
AO-7 21 Aug 14:24:58 14:27:10 11° 54° (NE) 14:29:22 29.400 - 29.500 MHz
Uribyol 2 21 Aug 14:35:23 14:40:29 63° 258° (WSW) 14:45:36 436.500 FM
Oscar 16 21 Aug 14:48:32 14:52:09 19° 265° (W) 14:55:47 437.025 USB, Beacon 2401.1428
AO-27 21 Aug 14:49:06 14:54:05 47° 260° (W) 14:59:05 436.795 MHz FM
JAS-1B 21 Aug 14:51:40 15:01:29 76° 257° (WSW) 15:11:12 435.800 - 435.900 CW/SSB
Uosat F 21 Aug 15:08:46 15:10:24 12° 65° (ENE) 15:12:03 435.120 FM
TMSAT-1 21 Aug 15:16:51 15:22:09 90° 278° (W) 15:27:28 436.925 FM
MaSat-1 21 Aug 15:25:37 15:30:05 81° 291° (WNW) 15:35:07 437.345 MHz
PANSAT 21 Aug 15:28:27 15:31:27 22° 159° (SSE) 15:34:27 not established
SO-50 21 Aug 15:37:42 15:42:30 69° 62° (ENE) 15:47:19 436.795 FM
OPAL 21 Aug 15:58:43 16:00:51 12° 95° (E) 16:02:59 ?
Gurwin Techsat 1B 21 Aug 15:59:40 16:03:50 23° 264° (W) 16:08:01 435.225 FM
RS-15 21 Aug 16:06:39 16:09:56 12° 29° (NNE) 16:13:15 29.354 - 29.394 USB, Beacon 29.352 USB
AO-7 21 Aug 16:10:11 16:18:28 70° 71° (ENE) 16:26:44 29.400 - 29.500 MHz
Uosat F 21 Aug 16:43:38 16:48:36 62° 258° (WSW) 16:53:35 435.120 FM
JAS-1B 21 Aug 16:48:52 16:52:48 13° 270° (W) 16:56:45 435.800 - 435.900 CW/SSB
UOSAT-12 21 Aug 16:54:36 16:58:44 30° 57° (ENE) 17:02:48 437.025 FM, 437.400 FM
PANSAT 21 Aug 17:07:35 17:11:20 53° 170° (S) 17:15:04 not established
OPAL 21 Aug 17:34:51 17:39:58 59° 288° (WNW) 17:45:04 ?
JAS-2 21 Aug 17:51:14 17:58:02 55° 74° (ENE) 18:04:03 435.800 - 435.900 CW/SSB, 435.910 FM
Hamsat 21 Aug 18:05:42 18:09:56 80° 77° (ENE) 18:14:14 145.90 MHz
AO-7 21 Aug 18:06:04 18:11:39 20° 264° (W) 18:17:17 29.400 - 29.500 MHz
RS-15 21 Aug 18:15:13 18:25:53 49° 56° (NE) 18:36:56 29.354 - 29.394 USB, Beacon 29.352 USB
Sapphire 21 Aug 18:24:03 18:29:02 40° 109° (ESE) 18:34:03 437.095 MHz 1200 baud AX-25 AFSK
UOSAT-12 21 Aug 18:35:04 18:38:40 22° 250° (WSW) 18:42:14 437.025 FM, 437.400 FM
PANSAT 21 Aug 18:47:35 18:51:24 66° 183° (S) 18:55:12 not established
PCSat 21 Aug 18:54:08 18:59:32 87° 113° (ESE) 19:04:58 145.825 MHz
STRAND 1 21 Aug 19:02:19 19:06:59 36° 99° (E) 19:11:37 ?
HO-68 21 Aug 19:22:17 19:23:24 10° 58° (ENE) 19:24:30 435.675 MHz FM
SO-67 21 Aug 19:36:22 19:39:44 51° 260° (W) 19:43:07 435.3500 MHz FM
JAS-2 21 Aug 19:38:22 19:43:06 19° 263° (W) 19:47:31 435.800 - 435.900 CW/SSB, 435.910 FM
Sapphire 21 Aug 20:08:26 20:12:32 22° 303° (WNW) 20:16:40 437.095 MHz 1200 baud AX-25 AFSK
PANSAT 21 Aug 20:27:50 20:31:23 36° 195° (SSW) 20:34:56 not established
RS-15 21 Aug 20:27:51 20:37:56 41° 253° (WSW) 20:48:28 29.354 - 29.394 USB, Beacon 29.352 USB
STRAND 1 21 Aug 20:42:13 20:45:52 20° 292° (WNW) 20:49:31 ?
PCSat 21 Aug 20:42:26 20:43:36 11° 309° (NW) 20:44:45 145.825 MHz
UKube-1 21 Aug 20:44:00 20:47:11 20° 70° (ENE) 20:50:23 145.840 MHz, 145.915 MHz
Oscar 11 21 Aug 21:01:06 21:03:56 17° 70° (ENE) 21:06:47 145.825 FM, Beacon 2401.500 USB
HO-68 21 Aug 21:02:47 21:09:55 76° 73° (ENE) 21:17:03 435.675 MHz FM
ISS 21 Aug 21:46:00 21:49:20 88° 46° (NE) 21:52:40 145.800 FM
PANSAT 21 Aug 22:09:33 22:11:07 12° 206° (SSW) 22:12:42 not established
UKube-1 21 Aug 22:19:34 22:23:11 26° 262° (W) 22:26:49 145.840 MHz, 145.915 MHz
FUNcube-1 21 Aug 22:34:00 22:38:08 84° 77° (ENE) 22:42:18 145.950 - 145.970 MHz USB
Oscar 11 21 Aug 22:36:06 22:39:51 29° 262° (W) 22:43:38 145.825 FM, Beacon 2401.500 USB
